Location: Ward Pound Ridge Reservation
(41.2500°N, 73.6000°W)
Time: 21:14:15
(UTC-04:00)

OTV 5 (USA 277) - Pass Details

Date: 16 October 2017
Orbit: 404 x 417 km, 43.0° (Epoch: 07 September)

Event Time Altitude Azimuth Distance (km) Brightness Sun altitude
Rises 19:28:34 0° 277° (W) 2,354 ? -15.2°
Reaches altitude 10° 19:30:42 10° 281° (W) 1,491 ? -15.6°
Maximum altitude 19:34:03 63° 3° (N) 470 ? -16.2°
Enters shadow 19:35:01 40° 66° (ENE) 623 ? -16.4°
